[[{"header":{"parameterUnit":"m.s-1","parameterCategory":1,"la1":30.2991,"la2":30.254,"lo1":-89.0895,"lo2":-89.0444,"dy":0.0017,"dx":0.0017,"nx":28,"ny":28,"refTime":"2026-02-27T03:00:00:Z","depth":0,"parameterNumber":2,"parameterNumberName":"U-component_of_WINDS"},"data":[0,0,0,0,0,0,0,0,0,0,0,0,0,0,0,0,0,0,0,0,0,0,0,0,0,0,0,0,0,0,0,0,0,0,0,0,0,0,0,0,0,0,0,0,0,0,0,0,0,0,0,0,0,0,0,0,0,0,-0.0275,-0.0273,0,-0.015,-0.0148,-0.0147,-0.0073,-0.0073,-0.0072,-0.0072,0.0053,0.0056,0.0059,0,0,0,0,0,0,0,0,0,0,0,0,0,-0.0456,-0.0453,-0.0275,-0.0273,-0.0272,-0.015,-0.0148,-0.0146,-0.0073,-0.0073,-0.0072,-0.0072,0.0052,0.0056,0.006,0,0,0,0,0,0,0,0,0,0,0,0,0,-0.0359,-0.0453,-0.0275,-0.022,-0.0214,-0.015,-0.0148,-0.0146,-0.0073,-0.0073,-0.0072,-0.0072,0.0051,0.0056,0.006,0.0078,0,0,0.0074,0.0076,0,0,0,0,0,0,0,0,-0.0365,-0.0353,-0.023,-0.0224,-0.0217,-0.0126,-0.0166,-0.0071,-0.0073,-0.0127,-0.0072,-0.0071,-0.0007,0.0002,0.0025,0.0084,0.009,0.0074,0.0077,0.0079,0.008,0,0,0,0,0,0,0,-0.0372,-0.0358,-0.0225,-0.0228,-0.022,-0.0204,-0.019,-0.0148,-0.0071,-0.0122,-0.0116,-0.0102,-0.0003,0.002,0.0028,0.0091,0.0074,0.0078,0.0081,0.0083,0.0168,0.0167,0,0,0,0,0,0,-0.0386,-0.0364,-0.0229,-0.0222,-0.0291,-0.0201,-0.0185,-0.0156,-0.0071,-0.0058,-0.0103,-0.0099,0.0012,0.0023,0.0033,0.0057,0.0079,0.0083,0.0086,0.0168,0.0167,0.0167,0,0,0,0,0,0,-0.0391,-0.0375,-0.0234,-0.0291,-0.0272,-0.0198,-0.0166,-0.0154,-0.013,-0.0057,-0.0043,-0.0092,0.0013,0.0026,0.0066,0.0063,0.0085,0.0089,0.0169,0.0168,0.0167,0.0108,0,0,0,0,0,0,-0.0396,-0.0377,-0.0368,-0.0291,-0.0269,-0.0202,-0.0166,-0.0152,-0.0122,-0.0116,-0.0044,-0.0031,0.0014,0.0058,0.007,0.007,0.0093,0.0169,0.0168,0.0167,0.0111,0.0105,0.0101,0,0,0,0,0,-0.0403,-0.0389,-0.0367,-0.0352,-0.0256,-0.0202,-0.019,-0.0136,-0.0122,-0.0114,-0.0068,-0.0033,0.0061,0.0062,0.0076,0.0076,0.017,0.0169,0.0168,0.0113,0.0106,0.0101,0,0,0,0,0,0,-0.0467,-0.0378,-0.0353,-0.0313,-0.0266,-0.019,-0.0176,-0.0144,-0.01,-0.0097,-0.0034,-0.0019,0.0014,0.0049,0.0048,0.0096,0.0119,0.012,0.0072,0.0067,0.0062,0.0053,0.0097,0,0,0,0,0,-0.0477,-0.0439,-0.0364,-0.0337,-0.0314,-0.025,-0.0225,-0.0188,-0.0137,-0.0116,-0.0067,-0.002,0.002,0.0046,0.0087,0.0115,0.0131,0.0122,0.0117,0.0113,0.0114,0.0128,0.0124,0.0163,0.0163,0.0163,0,0,-0.0496,-0.0443,-0.0423,-0.0348,-0.0307,-0.0272,-0.0233,-0.0197,-0.0171,-0.0111,-0.0071,-0.0034,0.0023,0.0055,0.0073,0.0086,0.0106,0.0112,0.0108,0.0111,0.0126,0.0122,0.0119,0.0163,0.0163,0.0163,0,0,-0.0514,-0.0469,-0.0442,-0.0403,-0.0341,-0.0299,-0.0294,-0.0223,-0.0196,-0.0155,-0.0111,-0.008,-0.0011,0.0026,0.0054,0.0045,0.0077,0.0057,0.0032,0.0045,0.0042,0.0039,0.0034,0.0031,0.0057,0.0057,0.0057,0,-0.0546,-0.0489,-0.0433,-0.04,-0.037,-0.0315,-0.029,-0.0255,-0.0184,-0.0165,-0.0152,-0.0067,-0.0025,0.0016,0.0014,0.0035,0.0042,0.005,0.0038,0.0036,0.0034,0.003,0.0028,0.0054,0.0054,0.0055,0.0055,0,-0.0533,-0.0495,-0.0482,-0.0415,-0.0383,-0.0354,-0.0297,-0.0272,-0.024,-0.0201,-0.0163,-0.0111,-0.0059,-0.0047,-0.0015,-0.0003,0.0003,0.0026,0.005,0.0027,0.0023,0.0022,0.005,0.0051,0.0052,0.0053,0,0,-0.0584,-0.0489,-0.0485,-0.0456,-0.0387,-0.0357,-0.0328,-0.0278,-0.026,-0.0214,-0.0189,-0.0135,-0.0114,-0.0082,-0.0046,-0.0035,-0.0049,-0.0013,-0.0011,-0.0023,-0.0036,-0.0055,-0.0057,-0.0028,-0.0028,-0.0028,-0.0042,0,-0.0592,-0.0534,-0.0486,-0.0447,-0.0414,-0.0364,-0.0339,-0.0295,-0.0259,-0.0227,-0.0187,-0.0151,-0.0124,-0.0106,-0.0092,-0.005,-0.0051,-0.0048,-0.0006,-0.0006,-0.0023,-0.0059,-0.0077,-0.0092,-0.0042,-0.0042,-0.0042,0,-0.0592,-0.0549,-0.0508,-0.0446,-0.043,-0.0408,-0.0361,-0.033,-0.0281,-0.0256,-0.0223,-0.0186,-0.0156,-0.0136,-0.0096,-0.0095,-0.0076,-0.0053,-0.0052,-0.0047,-0.0026,-0.0055,-0.0095,-0.0098,-0.0044,-0.0043,-0.0043,0,-0.0636,-0.0568,-0.0535,-0.0511,-0.0437,-0.0424,-0.0393,-0.0343,-0.0318,-0.0278,-0.0261,-0.0218,-0.0195,-0.0163,-0.0117,-0.0106,-0.0083,-0.0058,-0.0063,-0.0064,-0.0059,-0.006,-0.0098,-0.0046,-0.0046,-0.0046,-0.0046,0,-0.065,-0.0627,-0.0554,-0.0534,-0.0509,-0.0455,-0.0432,-0.0396,-0.0354,-0.0328,-0.0283,-0.026,-0.02,-0.0171,-0.0135,-0.0109,-0.0098,-0.0079,-0.0069,-0.0083,-0.0086,-0.0069,-0.0068,-0.0046,-0.0046,-0.0046,-0.0046,0,-0.0693,-0.0643,-0.0604,-0.0539,-0.0522,-0.0507,-0.0452,-0.0432,-0.0395,-0.0363,-0.0353,-0.0295,-0.0259,-0.021,-0.0159,-0.0135,-0.0114,-0.0099,-0.0131,-0.0125,-0.0133,-0.0134,-0.0162,-0.0165,-0.0111,-0.0111,-0.0112,0,-0.0705,-0.0686,-0.062,-0.06,-0.057,-0.0537,-0.0512,-0.046,-0.0436,-0.0382,-0.037,-0.033,-0.0296,-0.0242,-0.0196,-0.0158,-0.0142,-0.0155,-0.0136,-0.0152,-0.0145,-0.0147,-0.0146,-0.016,-0.0161,-0.0161,-0.0162,0,-0.0732,-0.071,-0.0674,-0.0632,-0.0603,-0.0567,-0.0528,-0.0515,-0.0456,-0.0432,-0.0394,-0.0368,-0.0318,-0.028,-0.0237,-0.0207,-0.0176,-0.0169,-0.0168,-0.0182,-0.0202,-0.0193,-0.0144,-0.0168,-0.0167,-0.0167,-0.0166,-0.0166,-0.0761,-0.0744,-0.0695,-0.0659,-0.0625,-0.0592,-0.0571,-0.0533,-0.0501,-0.0455,-0.0427,-0.0393,-0.0349,-0.0288,-0.026,-0.0234,-0.0221,-0.0219,-0.0219,-0.022,-0.0226,-0.0206,-0.0226,-0.0225,-0.0225,-0.0225,-0.0225,0,-0.0787,-0.0755,-0.0722,-0.0671,-0.0644,-0.0617,-0.0575,-0.0554,-0.0524,-0.0485,-0.0454,-0.0414,-0.0379,-0.0332,-0.0295,-0.0283,-0.0268,-0.0275,-0.0276,-0.027,-0.0238,-0.0243,-0.0288,-0.0288,-0.0288,-0.0288,-0.0288,-0.0288,-0.0797,-0.0768,-0.0741,-0.0696,-0.0664,-0.063,-0.0608,-0.0579,-0.0549,-0.0506,-0.0477,-0.0447,-0.0407,-0.0367,-0.0335,-0.0322,-0.0311,-0.0323,-0.0307,-0.0278,-0.0272,-0.0266,-0.0271,-0.0321,-0.0321,-0.0341,-0.0341,-0.0341]},{"header":{"parameterUnit":"m.s-1","parameterCategory":1,"la1":30.2991,"la2":30.254,"lo1":-89.0895,"lo2":-89.0444,"dy":0.0017,"dx":0.0017,"nx":28,"ny":28,"refTime":"2026-02-27T03:00:00:Z","depth":0,"parameterNumber":3,"parameterNumberName":"V-component_of_WINDS"},"data":[0,0,0,0,0,0,0,0,0,0,0,0,0,0,0,0,0,0,0,0,0,0,0,0,0,0,0,0,0,0,0,0,0,0,0,0,0,0,0,0,0,0,0,0,0,0,0,0,0,0,0,0,0,0,0,0,0,0,1.4114,1.4113,0,1.4052,1.4051,1.405,1.4043,1.4043,1.4044,1.4045,1.3974,1.3972,1.3969,0,0,0,0,0,0,0,0,0,0,0,0,0,1.4221,1.4219,1.4114,1.4113,1.4112,1.4052,1.4051,1.405,1.4043,1.4043,1.4044,1.4045,1.3975,1.3972,1.3969,0,0,0,0,0,0,0,0,0,0,0,0,0,1.4168,1.4218,1.4114,1.4102,1.41,1.4052,1.4051,1.405,1.4043,1.4043,1.4044,1.4045,1.3976,1.3972,1.3969,1.3927,0,0,1.3957,1.3956,0,0,0,0,0,0,0,0,1.4171,1.4164,1.4104,1.4102,1.41,1.4056,1.4063,1.4008,1.4042,1.4064,1.4045,1.4046,1.4,1.3995,1.3981,1.3923,1.392,1.3957,1.3955,1.3953,1.3952,0,0,0,0,0,0,0,1.4175,1.4167,1.4089,1.4103,1.4101,1.4097,1.4091,1.4052,1.4027,1.4062,1.4062,1.4055,1.3999,1.3984,1.3979,1.3919,1.3957,1.3954,1.3951,1.395,1.3825,1.3824,0,0,0,0,0,0,1.4181,1.417,1.4091,1.4087,1.4139,1.4095,1.4087,1.4069,1.4028,1.4022,1.4054,1.4055,1.399,1.3983,1.3976,1.3924,1.3953,1.395,1.3948,1.3826,1.3825,1.3824,0,0,0,0,0,0,1.4184,1.4175,1.4093,1.4128,1.4118,1.4092,1.4071,1.4067,1.4052,1.4022,1.4016,1.4043,1.399,1.3982,1.394,1.3922,1.3948,1.3945,1.3827,1.3826,1.3824,1.382,0,0,0,0,0,0,1.4187,1.4175,1.416,1.4128,1.4116,1.4059,1.407,1.4066,1.4047,1.4047,1.401,1.4005,1.3991,1.3945,1.3936,1.3917,1.3942,1.3829,1.3827,1.3825,1.3822,1.3819,1.3816,0,0,0,0,0,1.4191,1.416,1.416,1.415,1.4097,1.4058,1.4051,1.4037,1.4046,1.4029,1.401,1.4006,1.3926,1.3941,1.3931,1.391,1.383,1.3827,1.3825,1.3823,1.382,1.3816,0,0,0,0,0,0,1.4188,1.4156,1.4155,1.4113,1.4089,1.4057,1.4036,1.4033,1.4004,1.4006,1.3987,1.3979,1.3938,1.392,1.3938,1.3868,1.3878,1.3874,1.3881,1.3877,1.3874,1.3878,1.3939,0,0,0,0,0,1.4183,1.4157,1.4129,1.4095,1.4083,1.4062,1.4045,1.4036,1.401,1.3998,1.3976,1.3948,1.3917,1.3896,1.3865,1.382,1.3811,1.3801,1.3798,1.3796,1.3792,1.3766,1.3761,1.3815,1.3816,1.3816,0,0,1.4171,1.4151,1.4134,1.4094,1.4074,1.4045,1.4053,1.4022,1.4,1.3993,1.3953,1.3935,1.3903,1.386,1.3839,1.3843,1.3775,1.3793,1.3792,1.3788,1.3763,1.3758,1.3753,1.3814,1.3814,1.3814,0,0,1.4135,1.4118,1.4088,1.4069,1.404,1.4026,1.4019,1.3989,1.3978,1.3938,1.3932,1.3905,1.3851,1.3828,1.381,1.3768,1.3763,1.3759,1.3743,1.3718,1.3714,1.371,1.3694,1.3689,1.3755,1.3755,1.3755,0,1.4124,1.4082,1.4072,1.4042,1.4024,1.4019,1.3988,1.3969,1.393,1.3917,1.3924,1.3857,1.3835,1.3786,1.3777,1.3762,1.3752,1.3762,1.3716,1.3712,1.3708,1.3692,1.3687,1.3754,1.3754,1.3754,1.3754,0,1.4069,1.4041,1.402,1.3986,1.3966,1.3935,1.3918,1.3898,1.3893,1.3878,1.3837,1.3811,1.3775,1.3764,1.3756,1.3714,1.3717,1.372,1.373,1.3702,1.3687,1.3682,1.3754,1.3754,1.3754,1.3754,0,0,1.4027,1.399,1.3982,1.3967,1.3936,1.3913,1.3882,1.385,1.3833,1.3807,1.378,1.3736,1.3739,1.3718,1.3708,1.3687,1.3655,1.3692,1.3691,1.3685,1.3605,1.3602,1.3596,1.3652,1.3651,1.365,1.3608,0,1.3987,1.3934,1.3924,1.3877,1.385,1.3847,1.3819,1.3797,1.3783,1.3756,1.374,1.3709,1.3716,1.3703,1.3682,1.3663,1.3638,1.3666,1.3624,1.3623,1.3631,1.3588,1.3585,1.3545,1.3602,1.3601,1.36,0,1.3932,1.3908,1.3859,1.3833,1.3821,1.3797,1.3767,1.3743,1.3717,1.3708,1.3687,1.368,1.3646,1.3659,1.3611,1.3631,1.3613,1.3602,1.36,1.3593,1.3609,1.3579,1.3533,1.3526,1.3591,1.3592,1.3592,0,1.3905,1.3861,1.3826,1.3813,1.3782,1.3765,1.3751,1.3726,1.3708,1.3681,1.3669,1.3638,1.362,1.3595,1.358,1.3591,1.3533,1.3545,1.3523,1.3523,1.3509,1.351,1.3457,1.3501,1.3501,1.3501,1.3501,0,1.386,1.383,1.3814,1.3792,1.3758,1.3747,1.3713,1.3698,1.3677,1.3651,1.3646,1.3621,1.3603,1.3575,1.3563,1.3525,1.3517,1.3508,1.3504,1.3507,1.3508,1.3494,1.3496,1.3499,1.35,1.35,1.35,0,1.3824,1.3812,1.3773,1.3748,1.3741,1.3717,1.3694,1.3672,1.366,1.3627,1.3619,1.3598,1.3565,1.3548,1.3507,1.3499,1.3455,1.3454,1.3465,1.3463,1.3442,1.3443,1.3377,1.3367,1.3418,1.3418,1.3418,0,1.3795,1.3772,1.3746,1.373,1.3716,1.3689,1.3671,1.366,1.3641,1.3611,1.3592,1.356,1.3534,1.3482,1.3461,1.343,1.3427,1.3406,1.3421,1.3425,1.3425,1.3426,1.3423,1.3402,1.3401,1.3401,1.3401,0,1.3745,1.3741,1.3717,1.369,1.367,1.3648,1.3626,1.3612,1.3597,1.3576,1.3545,1.3524,1.3484,1.3451,1.3419,1.3402,1.3398,1.3397,1.3389,1.3391,1.3398,1.3393,1.3455,1.3397,1.3398,1.3398,1.3398,1.3398,1.371,1.369,1.3669,1.3642,1.3626,1.3606,1.3584,1.357,1.3544,1.3512,1.3507,1.3473,1.3447,1.3404,1.3386,1.3358,1.3362,1.3352,1.3349,1.3347,1.3345,1.3404,1.3352,1.3352,1.3352,1.3352,1.3353,0,1.3659,1.3646,1.3622,1.3593,1.3572,1.3574,1.3551,1.3532,1.3503,1.3481,1.3456,1.342,1.3389,1.3368,1.3336,1.3317,1.3315,1.3309,1.3309,1.3305,1.3344,1.3353,1.3312,1.3312,1.3312,1.3312,1.3312,1.3312,1.363,1.3596,1.359,1.3547,1.3534,1.3503,1.3489,1.347,1.3453,1.3413,1.3389,1.3376,1.3354,1.3321,1.3292,1.3286,1.3274,1.3268,1.3262,1.3298,1.3303,1.3307,1.3315,1.3266,1.3266,1.3226,1.3225,1.3225]}]]